Weather History for TJSJ - March, 2013

Change the Weather History Date:

Wednesday, March 6, 2013

  Actual Average Record
Temperature  
Mean Temperature 78 °F 78 °F  
Max Temperature 83 °F 84 °F 91 °F (1981)
Min Temperature 73 °F 73 °F 61 °F (1970)
Degree Days  
Heating Degree Days 0 0  
Month to date heating degree days 0 0  
Since 1 July heating degree days 0 0  
Cooling Degree Days 13 13  
Month to date cooling degree days 86 78  
Year to date cooling degree days 882 829  
Growing Degree Days 28 (Base 50)    
Moisture  
Dew Point 65 °F    
Average Humidity 67    
Maximum Humidity 79    
Minimum Humidity 55    
Precipitation  
Precipitation 0.00 in 0.06 in 1.13 in (1910)
Month to date precipitation 0.27 0.38  
Year to date precipitation 4.37 6.53  
Sea Level Pressure  
Sea Level Pressure 30.04 in    
Wind  
Wind Speed 7 mph (ENE)    
Max Wind Speed 17 mph    
Max Gust Speed 22 mph    
Visibility 10 miles    
Events      
T = Trace of Precipitation, MM = Missing Value Source: NWS Daily Summary

Daily Weather History Graph

Daily Weather History Graph

Search for Another Location

Airport or City:

Trip Planner

Search our weather history database for the weather conditions in past years. The results will help you decide how hot, cold, wet, or windy it might be!

Date:

Astronomy

Mar. 06, 2013 Rise Set
Actual Time 6:39 AM AST 6:31 PM AST
Civil Twilight 6:17 AM AST 6:53 PM AST
Nautical Twilight 5:51 AM AST 7:18 PM AST
Astronomical Twilight 5:26 AM AST 7:44 PM AST
Moon 2:10 AM AST (3/6) 1:42 PM AST (3/6)
Length of Visible Light 12h 36m
Length of Day
11h 52m
Waning Crescent, 30% of the Moon is Illuminated
Mar 6
Waning Crescent
Mar 11
New
Mar 19
First Quarter
Mar 27
Full
Apr 3
Last Quarter

Hourly Weather History & Observations

Time (AST) Temp. Heat Index Dew Point Humidity Pressure Visibility Wind Dir Wind Speed Gust Speed Precip Events Conditions
12:56 AM 75.9 °F - 61.0 °F 60% 30.06 in 10.0 mi NE 5.8 mph - N/A   Mostly Cloudy
1:56 AM 75.0 °F - 61.0 °F 62% 30.03 in 10.0 mi NNE 6.9 mph - N/A   Scattered Clouds
2:56 AM 73.9 °F - 62.1 °F 66% 30.01 in 10.0 mi NE 3.5 mph - N/A   Scattered Clouds
3:56 AM 73.0 °F - 62.1 °F 68% 30.01 in 10.0 mi Calm Calm - N/A   Scattered Clouds
4:56 AM 73.9 °F - 64.9 °F 73% 30.02 in 10.0 mi Calm Calm - N/A   Mostly Cloudy
5:56 AM 73.0 °F - 64.9 °F 76% 30.03 in 10.0 mi Calm Calm - N/A   Mostly Cloudy
6:56 AM 73.9 °F - 64.9 °F 73% 30.05 in 10.0 mi Calm Calm - N/A   Mostly Cloudy
7:56 AM 75.0 °F - 64.9 °F 71% 30.06 in 10.0 mi Calm Calm - N/A   Mostly Cloudy
8:56 AM 79.0 °F - 64.9 °F 62% 30.08 in 10.0 mi ENE 8.1 mph - N/A   Mostly Cloudy
9:56 AM 80.1 °F 81.9 °F 64.9 °F 60% 30.09 in 10.0 mi Variable 6.9 mph 17.3 mph N/A   Mostly Cloudy
10:56 AM 80.1 °F 81.7 °F 64.0 °F 58% 30.09 in 10.0 mi ENE 10.4 mph 19.6 mph N/A   Mostly Cloudy
11:56 AM 81.0 °F 82.5 °F 64.0 °F 56% 30.08 in 10.0 mi NE 10.4 mph - N/A   Mostly Cloudy
12:56 PM 82.0 °F 83.4 °F 64.0 °F 54% 30.06 in 10.0 mi NE 9.2 mph - N/A   Mostly Cloudy
1:56 PM 82.0 °F 83.8 °F 64.9 °F 56% 30.02 in 10.0 mi ENE 12.7 mph - N/A   Mostly Cloudy
2:56 PM 82.0 °F 83.8 °F 64.9 °F 56% 30.01 in 10.0 mi ENE 13.8 mph 18.4 mph N/A   Scattered Clouds
3:56 PM 81.0 °F 83.0 °F 66.0 °F 60% 29.99 in 10.0 mi East 12.7 mph 19.6 mph N/A   Scattered Clouds
4:56 PM 79.0 °F - 66.0 °F 64% 29.99 in 10.0 mi ENE 13.8 mph 19.6 mph 0.01 in   Scattered Clouds
5:56 PM 78.1 °F - 66.0 °F 66% 30.01 in 10.0 mi East 12.7 mph - 0.01 in   Scattered Clouds
6:56 PM 77.0 °F - 66.9 °F 71% 30.02 in 10.0 mi East 8.1 mph - N/A   Scattered Clouds
7:56 PM 77.0 °F - 66.9 °F 71% 30.03 in 10.0 mi ESE 6.9 mph - N/A   Scattered Clouds
8:56 PM 75.0 °F - 68.0 °F 79% 30.04 in 10.0 mi East 5.8 mph - N/A   Partly Cloudy
9:56 PM 75.9 °F - 68.0 °F 76% 30.05 in 10.0 mi East 4.6 mph - 0.01 in   Partly Cloudy
10:56 PM 75.9 °F - 68.0 °F 76% 30.05 in 10.0 mi ESE 4.6 mph - N/A   Partly Cloudy
11:56 PM 75.0 °F - 66.9 °F 76% 30.04 in 10.0 mi Calm Calm - N/A   Partly Cloudy